TimePST,TemperatureF,Dew PointF,Humidity,Sea Level PressureIn,VisibilityMPH,Wind Direction,Wind SpeedMPH,Gust SpeedMPH,PrecipitationIn,Events,Conditions,WindDirDegrees,DateUTC
12:17 AM,35.6,35.6,100,30.21,7.0,ESE,5.8,-,N/A,,Mostly Cloudy,120,2012-02-15 08:17:00
12:53 AM,35.1,34.0,96,30.24,6.0,Calm,Calm,-,N/A,,Scattered Clouds,0,2012-02-15 08:53:00
1:17 AM,35.6,35.6,100,30.26,7.0,Calm,Calm,-,N/A,,Mostly Cloudy,0,2012-02-15 09:17:00
1:53 AM,35.1,34.0,96,30.25,7.0,SE,5.8,-,N/A,,Overcast,130,2012-02-15 09:53:00
2:53 AM,35.1,34.0,96,30.27,8.0,SE,4.6,-,N/A,,Overcast,130,2012-02-15 10:53:00
3:34 AM,35.6,33.8,93,30.27,10.0,Calm,Calm,-,N/A,,Mostly Cloudy,0,2012-02-15 11:34:00
3:53 AM,35.6,33.8,93,30.28,10.0,Calm,Calm,-,N/A,,Mostly Cloudy,0,2012-02-15 11:53:00
4:00 AM,35.6,35.6,100,30.28,10.0,Calm,Calm,-,N/A,,Mostly Cloudy,0,2012-02-15 12:00:00
4:53 AM,36.0,34.0,93,30.29,10.0,SE,5.8,-,N/A,,Mostly Cloudy,130,2012-02-15 12:53:00
5:00 AM,35.6,35.6,100,30.29,10.0,SE,5.8,-,N/A,,Overcast,140,2012-02-15 13:00:00
5:53 AM,37.0,36.0,96,30.31,10.0,ESE,5.8,-,N/A,,Overcast,120,2012-02-15 13:53:00
6:53 AM,37.9,36.0,93,30.33,10.0,SSE,3.5,-,N/A,,Overcast,150,2012-02-15 14:53:00
7:53 AM,39.0,36.0,89,30.35,5.0,ESE,3.5,-,N/A,,Overcast,110,2012-02-15 15:53:00
8:53 AM,39.0,37.0,93,30.38,7.0,ESE,4.6,-,N/A,,Mostly Cloudy,120,2012-02-15 16:53:00
9:22 AM,39.2,37.4,93,30.40,7.0,SSE,4.6,-,N/A,,Overcast,150,2012-02-15 17:22:00
9:53 AM,39.9,37.0,89,30.40,6.0,South,4.6,-,N/A,,Overcast,180,2012-02-15 17:53:00
10:53 AM,43.0,39.0,86,30.40,10.0,South,6.9,-,N/A,,Overcast,180,2012-02-15 18:53:00
11:53 AM,43.0,36.0,76,30.40,10.0,South,6.9,-,N/A,,Scattered Clouds,190,2012-02-15 19:53:00
12:53 PM,44.1,36.0,73,30.38,10.0,South,5.8,-,N/A,,Scattered Clouds,180,2012-02-15 20:53:00
1:00 PM,44.6,37.4,76,30.38,10.0,South,5.8,-,N/A,,Mostly Cloudy,170,2012-02-15 21:00:00
1:53 PM,44.1,36.0,73,30.38,10.0,Variable,4.6,-,N/A,,Mostly Cloudy,0,2012-02-15 21:53:00
2:53 PM,45.0,35.1,68,30.36,10.0,Calm,Calm,-,N/A,,Mostly Cloudy,0,2012-02-15 22:53:00
3:35 PM,44.6,37.4,76,30.35,10.0,Variable,5.8,-,N/A,,Mostly Cloudy,0,2012-02-15 23:35:00
3:53 PM,46.0,36.0,68,30.34,10.0,NW,3.5,-,N/A,,Mostly Cloudy,320,2012-02-15 23:53:00
4:53 PM,43.0,36.0,76,30.34,10.0,Variable,4.6,-,N/A,,Partly Cloudy,0,2012-02-16 00:53:00
5:53 PM,42.1,36.0,79,30.34,10.0,Calm,Calm,-,N/A,,Clear,0,2012-02-16 01:53:00
6:53 PM,42.1,35.1,76,30.36,10.0,Calm,Calm,-,N/A,,Clear,0,2012-02-16 02:53:00
7:53 PM,39.9,34.0,79,30.36,10.0,East,3.5,-,N/A,,Partly Cloudy,100,2012-02-16 03:53:00
8:53 PM,37.9,34.0,86,30.37,10.0,Calm,Calm,-,N/A,,Clear,0,2012-02-16 04:53:00
9:53 PM,39.0,35.1,86,30.34,10.0,ESE,6.9,-,N/A,,Clear,110,2012-02-16 05:53:00
10:53 PM,37.0,34.0,89,30.34,10.0,SSE,4.6,-,N/A,,Clear,150,2012-02-16 06:53:00
11:53 PM,37.4,35.6,93,30.32,10.0,SSE,5.8,-,N/A,,Clear,150,2012-02-16 07:53:00